User: anonymous
Location: Caltech
(34.1382°N, 118.1253°W)
Time: 01:03:26
(UTC-07:00)
Language:

GPS 2-04 Rocket1 - Orbit

View from above orbital plane
View from above orbital plane
View from above satellite
View from above satellite

Ground track
Ground track

The orbit data is extracted from the following two-line orbital elements,

1 20303U 89085B   14237.43422660  .00005111  00000-0  24482-3 0  8532
2 20303 035.6325 286.2717 0139875 160.3462 285.7030 15.10169543344362
Epoch (UTC): 25 August 2014 10:25:17
Eccentricity: 0.0139875
inclination: 35.6325°
perigee height: 439 km
apogee height: 632 km
right ascension of ascending node: 286.2717°
argument of perigee: 160.3462°
revolutions per day: 15.10169543
mean anomaly at epoch: 285.7030°
orbit number at epoch: 34436

The dashed part of the orbit path shows where the satellite is in the earth's shadow,  

DLR